Weather in Lebyazhye

Russia / Ulyanovsk Oblast     54°07′10″N   49°36′13″E
temp.,
°C
wind,
m/s
gust,
m/s
humid.,
%
clouds,
%
prec.,
mm/h
press.,
hPa
HPBL,
m
18 may, tue
tue1801:00+18nne34616 0.0 101737
04:00+17ene336519 0.0 101729
07:00+20ese22620 0.0 101782
10:00+25ssw01400 0.0 1017369
13:00+28wsw11263 0.0 10161534
16:00+28nw12270 0.0 10161404
19:00+26n224114 0.0 101520
22:00+22ne713612 0.0 1016268
19 may, wed
wed1901:00+19ene612682 0.0 1016279
04:00+18e613680 0.0 1016260
07:00+19e612680 0.0 1016342
10:00+23e68510 0.0 1016686
13:00+25e78410 0.0 10161081
16:00+26ese78380 0.0 10151358
19:00+24ese611530 0.0 1015346
22:00+20ese614600 0.0 1016327
20 may, thu
thu2001:00+18ese614640 0.0 1016328
04:00+17ese614612 0.0 1017340
07:00+17ese7146236 0.0 1017368
10:00+21se811530 0.0 1016635
13:00+24se89460 0.0 10161644
16:00+25se894230 0.0 10151967
19:00+22ese813475 0.0 1015530
22:00+18se6125235 0.0 1015275
21 may, fri
fri2101:00+15se495823 0.0 1015153
04:00+14sse365990 0.0 1015102
07:00+15s347381 0.1 1016178
10:00+19sw566817 0.1 1017747
13:00+21sw575568 0.0 10171399
16:00+21sw564939 0.0 10171178
19:00+19sw486429 0.0 1018242
22:00+16ssw487262 0.0 1019122
22 may, sat
sat2201:00+15ssw367656 0.0 102093
04:00+14wsw2284100 0.0 102125
07:00+16n0078100 0.0 1022134
10:00+17n117450 0.0 1023177
13:00+17nnw348199 0.4 1023161
16:00+22n3261100 0.4 1022609
19:00+20ene576983 0.0 1021305
22:00+16e4980100 0.0 1021153